Year,Month,Day,Hour,Minute,Value (Times are PST for windgust in km/hr)
2015,11,17,00,28,3.20
2015,11,17,00,29,3.20
2015,11,17,00,30,1.60
2015,11,17,00,33,1.60
2015,11,17,00,34,1.60
2015,11,17,00,41,1.60
2015,11,17,00,42,3.20
2015,11,17,00,43,1.60
2015,11,17,00,51,3.20
2015,11,17,00,52,3.20
2015,11,17,00,54,3.20
2015,11,17,00,55,1.60
2015,11,17,00,56,3.20
2015,11,17,00,57,1.60
2015,11,17,00,58,1.60
2015,11,17,00,59,1.60
2015,11,17,01,03,1.60
2015,11,17,02,48,3.20
2015,11,17,02,49,3.20
2015,11,17,02,50,1.60
2015,11,17,02,51,1.60
2015,11,17,02,52,3.20
2015,11,17,02,53,4.80
2015,11,17,02,54,3.20
2015,11,17,02,55,4.80
2015,11,17,02,56,3.20
2015,11,17,02,57,3.20
2015,11,17,02,58,3.20
2015,11,17,02,59,3.20
2015,11,17,03,00,1.60
2015,11,17,03,01,4.80
2015,11,17,03,02,4.80
2015,11,17,03,03,8.10
2015,11,17,03,04,8.10
2015,11,17,03,05,8.10
2015,11,17,03,06,3.20
2015,11,17,03,07,6.40
2015,11,17,03,08,6.40
2015,11,17,03,09,3.20
2015,11,17,03,10,1.60
2015,11,17,03,11,3.20
2015,11,17,03,12,3.20
2015,11,17,03,13,3.20
2015,11,17,03,14,1.60
2015,11,17,03,15,3.20
2015,11,17,03,16,1.60
2015,11,17,03,17,1.60
2015,11,17,03,18,3.20
2015,11,17,03,19,1.60
2015,11,17,03,20,3.20
2015,11,17,03,21,1.60
2015,11,17,03,22,1.60
2015,11,17,03,23,3.20
2015,11,17,03,24,3.20
2015,11,17,03,25,3.20
2015,11,17,03,26,3.20
2015,11,17,03,27,3.20
2015,11,17,03,28,3.20
2015,11,17,03,29,6.40
2015,11,17,03,30,3.20
2015,11,17,03,31,6.40
2015,11,17,03,32,6.40
2015,11,17,03,33,6.40
2015,11,17,03,34,3.20
2015,11,17,03,35,3.20
2015,11,17,03,36,1.60
2015,11,17,03,37,1.60
2015,11,17,03,38,1.60
2015,11,17,03,39,1.60
2015,11,17,03,44,6.40
2015,11,17,03,45,3.20
2015,11,17,03,46,6.40
2015,11,17,03,47,6.40
2015,11,17,03,48,3.20
2015,11,17,03,49,1.60
2015,11,17,03,50,1.60
2015,11,17,03,51,1.60
2015,11,17,03,52,1.60
2015,11,17,03,54,1.60
2015,11,17,03,55,3.20
2015,11,17,03,56,3.20
2015,11,17,03,58,1.60
2015,11,17,03,59,1.60
2015,11,17,04,06,3.20
2015,11,17,04,07,3.20
2015,11,17,04,08,1.60
2015,11,17,04,09,1.60
2015,11,17,04,10,1.60
2015,11,17,04,11,3.20
2015,11,17,04,12,3.20
2015,11,17,04,13,3.20
2015,11,17,04,14,1.60
2015,11,17,04,15,1.60
2015,11,17,04,16,1.60
2015,11,17,04,17,1.60
2015,11,17,04,18,1.60
2015,11,17,04,20,1.60
2015,11,17,04,21,1.60
2015,11,17,04,22,3.20
2015,11,17,04,23,6.40
2015,11,17,04,24,8.10
2015,11,17,04,25,9.60
2015,11,17,04,26,6.40
2015,11,17,04,27,4.80
2015,11,17,04,28,3.20
2015,11,17,04,29,3.20
2015,11,17,04,30,3.20
2015,11,17,04,31,3.20
2015,11,17,04,32,1.60
2015,11,17,04,34,3.20
2015,11,17,04,35,3.20
2015,11,17,04,36,8.10
2015,11,17,04,37,8.10
2015,11,17,04,38,6.40
2015,11,17,04,39,1.60
2015,11,17,04,40,1.60
2015,11,17,04,41,1.60
2015,11,17,04,42,1.60
2015,11,17,04,43,3.20
2015,11,17,04,44,3.20
2015,11,17,04,45,6.40
2015,11,17,04,46,6.40
2015,11,17,04,47,6.40
2015,11,17,04,48,1.60
2015,11,17,04,49,4.80
2015,11,17,04,50,1.60
2015,11,17,04,58,4.80
2015,11,17,04,59,6.40
2015,11,17,05,00,6.40
2015,11,17,05,01,4.80
2015,11,17,05,02,4.80
2015,11,17,05,03,1.60
2015,11,17,05,04,1.60
2015,11,17,05,05,1.60
2015,11,17,05,08,1.60
2015,11,17,05,09,1.60
2015,11,17,05,48,4.80
2015,11,17,05,49,6.40
2015,11,17,05,50,6.40
2015,11,17,05,51,4.80
2015,11,17,05,52,6.40
2015,11,17,05,53,4.80
2015,11,17,05,54,4.80
2015,11,17,05,55,6.40
2015,11,17,05,56,6.40
2015,11,17,05,57,1.60
2015,11,17,05,58,1.60
2015,11,17,05,59,1.60
2015,11,17,06,02,1.60
2015,11,17,06,03,1.60
2015,11,17,06,04,3.20
2015,11,17,06,05,3.20
2015,11,17,06,06,1.60
2015,11,17,06,07,1.60
2015,11,17,06,08,3.20
2015,11,17,06,09,3.20
2015,11,17,06,10,1.60
2015,11,17,06,12,3.20
2015,11,17,06,13,3.20
2015,11,17,06,14,1.60
2015,11,17,06,15,1.60
2015,11,17,06,16,3.20
2015,11,17,06,17,1.60
2015,11,17,06,22,3.20
2015,11,17,06,23,3.20
2015,11,17,06,24,6.40
2015,11,17,06,25,6.40
2015,11,17,06,26,8.10
2015,11,17,06,27,4.80
2015,11,17,06,28,1.60
2015,11,17,06,29,4.80
2015,11,17,06,30,3.20
2015,11,17,06,31,6.40
2015,11,17,06,32,4.80
2015,11,17,06,33,6.40
2015,11,17,06,34,16.10
2015,11,17,06,35,11.30
2015,11,17,06,36,14.50
2015,11,17,06,37,12.90
2015,11,17,06,38,9.60
2015,11,17,06,39,6.40
2015,11,17,06,40,6.40
2015,11,17,06,41,6.40
2015,11,17,06,42,6.40
2015,11,17,06,43,8.10
2015,11,17,06,44,8.10
2015,11,17,06,45,12.90
2015,11,17,06,46,8.10
2015,11,17,06,47,14.50
2015,11,17,06,48,14.50
2015,11,17,06,49,4.80
2015,11,17,06,50,9.60
2015,11,17,06,51,22.50
2015,11,17,06,52,9.60
2015,11,17,06,53,11.30
2015,11,17,06,54,6.40
2015,11,17,06,55,8.10
2015,11,17,06,56,6.40
2015,11,17,06,57,1.60
2015,11,17,06,58,6.40
2015,11,17,06,59,4.80
2015,11,17,07,00,11.30
2015,11,17,07,01,4.80
2015,11,17,07,02,8.10
2015,11,17,07,03,3.20
2015,11,17,07,04,4.80
2015,11,17,07,05,3.20
2015,11,17,07,06,1.60
2015,11,17,07,07,3.20
2015,11,17,07,08,3.20
2015,11,17,07,09,3.20
2015,11,17,07,10,4.80
2015,11,17,07,11,6.40
2015,11,17,07,12,6.40
2015,11,17,07,13,6.40
2015,11,17,07,14,8.10
2015,11,17,07,15,6.40
2015,11,17,07,16,6.40
2015,11,17,07,17,4.80
2015,11,17,07,18,4.80
2015,11,17,07,19,6.40
2015,11,17,07,20,4.80
2015,11,17,07,21,9.60
2015,11,17,07,22,9.60
2015,11,17,07,23,8.10
2015,11,17,07,24,8.10
2015,11,17,07,25,4.80
2015,11,17,07,26,3.20
2015,11,17,07,27,3.20
2015,11,17,07,28,4.80
2015,11,17,07,29,3.20
2015,11,17,07,30,3.20
2015,11,17,07,31,3.20
2015,11,17,07,32,1.60
2015,11,17,07,33,4.80
2015,11,17,07,34,6.40
2015,11,17,07,35,6.40
2015,11,17,07,36,4.80
2015,11,17,07,37,4.80
2015,11,17,07,38,3.20
2015,11,17,07,39,6.40
2015,11,17,07,40,6.40
2015,11,17,07,41,9.60
2015,11,17,07,42,4.80
2015,11,17,07,43,6.40
2015,11,17,07,44,9.60
2015,11,17,07,45,6.40
2015,11,17,07,46,4.80
2015,11,17,07,47,8.10
2015,11,17,07,48,11.30
2015,11,17,07,49,6.40
2015,11,17,07,50,4.80
2015,11,17,07,51,4.80
2015,11,17,07,52,3.20
2015,11,17,07,53,1.60
2015,11,17,07,54,1.60
2015,11,17,07,55,4.80
2015,11,17,07,56,3.20
2015,11,17,07,57,4.80
2015,11,17,07,58,6.40
2015,11,17,07,59,8.10
2015,11,17,08,00,8.10
2015,11,17,08,01,6.40
2015,11,17,08,02,8.10
2015,11,17,08,03,6.40
2015,11,17,08,04,8.10
2015,11,17,08,05,6.40
2015,11,17,08,06,3.20
2015,11,17,08,07,4.80
2015,11,17,08,08,6.40
2015,11,17,08,09,6.40
2015,11,17,08,10,3.20
2015,11,17,08,11,3.20
2015,11,17,08,12,6.40
2015,11,17,08,13,4.80
2015,11,17,08,14,4.80
2015,11,17,08,15,6.40
2015,11,17,08,16,4.80
2015,11,17,08,17,6.40
2015,11,17,08,18,6.40
2015,11,17,08,19,4.80
2015,11,17,08,20,4.80
2015,11,17,08,21,4.80
2015,11,17,08,22,4.80
2015,11,17,08,23,8.10
2015,11,17,08,24,6.40
2015,11,17,08,25,9.60
2015,11,17,08,26,6.40
2015,11,17,08,27,4.80
2015,11,17,08,28,3.20
2015,11,17,08,29,8.10
2015,11,17,08,30,8.10
2015,11,17,08,31,6.40
2015,11,17,08,32,4.80
2015,11,17,08,33,3.20
2015,11,17,08,34,3.20
2015,11,17,08,35,3.20
2015,11,17,08,36,3.20
2015,11,17,08,37,3.20
2015,11,17,08,38,3.20
2015,11,17,08,39,1.60
2015,11,17,08,40,6.40
2015,11,17,08,41,4.80
2015,11,17,08,42,3.20
2015,11,17,08,43,3.20
2015,11,17,08,44,3.20
2015,11,17,08,45,3.20
2015,11,17,08,46,3.20
2015,11,17,08,47,4.80
2015,11,17,08,48,3.20
2015,11,17,08,49,3.20
2015,11,17,08,50,3.20
2015,11,17,08,51,4.80
2015,11,17,08,52,4.80
2015,11,17,08,53,3.20
2015,11,17,08,54,3.20
2015,11,17,08,55,1.60
2015,11,17,08,56,3.20
2015,11,17,08,57,3.20
2015,11,17,08,58,3.20
2015,11,17,08,59,4.80
2015,11,17,09,00,1.60
2015,11,17,09,01,3.20
2015,11,17,09,02,1.60
2015,11,17,09,03,3.20
2015,11,17,09,04,3.20
2015,11,17,09,05,3.20
2015,11,17,09,06,3.20
2015,11,17,09,07,1.60
2015,11,17,09,08,1.60
2015,11,17,09,09,3.20
2015,11,17,09,10,3.20
2015,11,17,09,11,3.20
2015,11,17,09,12,3.20
2015,11,17,09,13,3.20
2015,11,17,09,14,4.80
2015,11,17,09,15,4.80
2015,11,17,09,16,4.80
2015,11,17,09,17,3.20
2015,11,17,09,19,6.40
2015,11,17,09,20,6.40
2015,11,17,09,21,4.80
2015,11,17,09,22,4.80
2015,11,17,09,23,3.20
2015,11,17,09,24,1.60
2015,11,17,09,25,4.80
2015,11,17,09,26,4.80
2015,11,17,09,27,3.20
2015,11,17,09,28,4.80
2015,11,17,09,29,4.80
2015,11,17,09,30,3.20
2015,11,17,09,31,3.20
2015,11,17,09,32,4.80
2015,11,17,09,33,4.80
2015,11,17,09,34,3.20
2015,11,17,09,35,1.60
2015,11,17,09,36,1.60
2015,11,17,09,37,1.60
2015,11,17,10,22,3.20
2015,11,17,10,23,1.60
2015,11,17,10,25,1.60
2015,11,17,10,26,1.60
2015,11,17,10,27,1.60
2015,11,17,10,28,3.20
2015,11,17,10,29,1.60
2015,11,17,10,30,3.20
2015,11,17,10,31,3.20
2015,11,17,10,32,1.60
2015,11,17,10,33,1.60
2015,11,17,10,34,3.20
2015,11,17,10,35,1.60
2015,11,17,10,37,4.80
2015,11,17,10,38,3.20
2015,11,17,10,39,1.60
2015,11,17,10,40,1.60
2015,11,17,10,41,3.20
2015,11,17,10,42,3.20
2015,11,17,10,43,3.20
2015,11,17,10,44,4.80
2015,11,17,10,45,4.80
2015,11,17,10,46,4.80
2015,11,17,10,47,3.20
2015,11,17,10,48,4.80
2015,11,17,10,49,4.80
2015,11,17,10,50,4.80
2015,11,17,10,51,6.40
2015,11,17,10,52,3.20
2015,11,17,10,53,1.60
2015,11,17,10,54,4.80
2015,11,17,10,55,4.80
2015,11,17,10,56,6.40
2015,11,17,10,57,4.80
2015,11,17,10,58,3.20
2015,11,17,10,59,4.80
2015,11,17,11,00,9.60
2015,11,17,11,01,8.10
2015,11,17,11,02,8.10
2015,11,17,11,03,4.80
2015,11,17,11,04,3.20
2015,11,17,11,05,6.40
2015,11,17,11,06,6.40
2015,11,17,11,07,4.80
2015,11,17,11,08,4.80
2015,11,17,11,09,9.60
2015,11,17,11,10,12.90
2015,11,17,11,11,8.10
2015,11,17,11,12,16.10
2015,11,17,11,13,6.40
2015,11,17,11,14,11.30
2015,11,17,11,15,12.90
2015,11,17,11,16,16.10
2015,11,17,11,17,12.90
2015,11,17,11,18,4.80
2015,11,17,11,19,4.80
2015,11,17,11,20,4.80
2015,11,17,11,21,8.10
2015,11,17,11,22,4.80
2015,11,17,11,23,6.40
2015,11,17,11,24,4.80
2015,11,17,11,25,16.10
2015,11,17,11,26,9.60
2015,11,17,11,27,6.40
2015,11,17,11,28,8.10
2015,11,17,11,29,6.40
2015,11,17,11,30,4.80
2015,11,17,11,31,8.10
2015,11,17,11,32,9.60
2015,11,17,11,33,8.10
2015,11,17,11,34,3.20
2015,11,17,11,35,4.80
2015,11,17,11,36,6.40
2015,11,17,11,37,6.40
2015,11,17,11,38,3.20
2015,11,17,11,39,8.10
2015,11,17,11,40,8.10
2015,11,17,11,41,8.10
2015,11,17,11,42,6.40
2015,11,17,11,43,4.80
2015,11,17,11,44,4.80
2015,11,17,11,45,6.40
2015,11,17,11,46,11.30
2015,11,17,11,47,11.30
2015,11,17,11,48,8.10
2015,11,17,11,49,8.10
2015,11,17,11,50,8.10
2015,11,17,11,51,8.10
2015,11,17,11,52,4.80
2015,11,17,11,53,3.20
2015,11,17,11,54,3.20
2015,11,17,11,55,4.80
2015,11,17,11,56,4.80
2015,11,17,11,57,4.80
2015,11,17,11,58,4.80
2015,11,17,11,59,14.50
2015,11,17,12,00,9.60
2015,11,17,12,01,6.40
2015,11,17,12,02,8.10
2015,11,17,12,03,3.20
2015,11,17,12,04,6.40
2015,11,17,12,05,4.80
2015,11,17,12,06,6.40
2015,11,17,12,07,4.80
2015,11,17,12,08,3.20
2015,11,17,12,09,6.40
2015,11,17,12,10,6.40
2015,11,17,12,11,1.60
2015,11,17,12,12,4.80
2015,11,17,12,13,3.20
2015,11,17,12,14,3.20
2015,11,17,12,15,4.80
2015,11,17,12,16,4.80
2015,11,17,12,17,4.80
2015,11,17,12,18,4.80
2015,11,17,12,19,3.20
2015,11,17,12,20,4.80
2015,11,17,12,21,3.20
2015,11,17,12,22,1.60
2015,11,17,12,23,4.80
2015,11,17,12,24,4.80
2015,11,17,12,25,4.80
2015,11,17,12,26,4.80
2015,11,17,12,27,4.80
2015,11,17,12,28,9.60
2015,11,17,12,29,6.40
2015,11,17,12,30,6.40
2015,11,17,12,31,3.20
2015,11,17,12,32,4.80
2015,11,17,12,33,4.80
2015,11,17,12,34,6.40
2015,11,17,12,35,3.20
2015,11,17,12,36,16.10
2015,11,17,12,37,14.50
2015,11,17,12,38,8.10
2015,11,17,12,39,9.60
2015,11,17,12,40,8.10
2015,11,17,12,41,9.60
2015,11,17,12,42,8.10
2015,11,17,12,43,4.80
2015,11,17,12,44,8.10
2015,11,17,12,45,4.80
2015,11,17,12,46,11.30
2015,11,17,12,47,12.90
2015,11,17,12,48,16.10
2015,11,17,12,49,6.40
2015,11,17,12,50,4.80
2015,11,17,12,51,9.60
2015,11,17,12,52,16.10
2015,11,17,12,53,4.80
2015,11,17,12,54,4.80
2015,11,17,12,55,9.60
2015,11,17,12,56,12.90
2015,11,17,12,57,9.60
2015,11,17,12,58,6.40
2015,11,17,12,59,14.50
2015,11,17,13,00,6.40
2015,11,17,13,01,4.80
2015,11,17,13,02,9.60
2015,11,17,13,03,11.30
2015,11,17,13,04,9.60
2015,11,17,13,05,12.90
2015,11,17,13,06,9.60
2015,11,17,13,07,9.60
2015,11,17,13,08,9.60
2015,11,17,13,09,8.10
2015,11,17,13,10,16.10
2015,11,17,13,11,12.90
2015,11,17,13,12,6.40
2015,11,17,13,13,9.60
2015,11,17,13,14,6.40
2015,11,17,13,15,1.60
2015,11,17,13,16,4.80
2015,11,17,13,17,1.60
2015,11,17,13,18,3.20
2015,11,17,13,19,6.40
2015,11,17,13,20,4.80
2015,11,17,13,21,4.80
2015,11,17,13,22,3.20
2015,11,17,13,23,3.20
2015,11,17,13,24,3.20
2015,11,17,13,25,4.80
2015,11,17,13,26,3.20
2015,11,17,13,27,4.80
2015,11,17,13,28,4.80
2015,11,17,13,29,4.80
2015,11,17,13,30,9.60
2015,11,17,13,31,12.90
2015,11,17,13,32,4.80
2015,11,17,13,33,3.20
2015,11,17,13,34,11.30
2015,11,17,13,35,8.10
2015,11,17,13,36,6.40
2015,11,17,13,37,4.80
2015,11,17,13,38,8.10
2015,11,17,13,39,6.40
2015,11,17,13,40,3.20
2015,11,17,13,41,4.80
2015,11,17,13,42,6.40
2015,11,17,13,43,3.20
2015,11,17,13,44,3.20
2015,11,17,13,45,1.60
2015,11,17,13,46,4.80
2015,11,17,13,47,8.10
2015,11,17,13,48,3.20
2015,11,17,13,49,8.10
2015,11,17,13,50,6.40
2015,11,17,13,51,8.10
2015,11,17,13,52,9.60
2015,11,17,13,53,11.30
2015,11,17,13,54,4.80
2015,11,17,13,55,4.80
2015,11,17,13,56,6.40
2015,11,17,13,57,8.10
2015,11,17,13,58,6.40
2015,11,17,13,59,14.50
2015,11,17,14,00,16.10
2015,11,17,14,01,8.10
2015,11,17,14,02,6.40
2015,11,17,14,03,3.20
2015,11,17,14,04,4.80
2015,11,17,14,05,3.20
2015,11,17,14,06,3.20
2015,11,17,14,07,3.20
2015,11,17,14,08,4.80
2015,11,17,14,09,3.20
2015,11,17,14,10,4.80
2015,11,17,14,11,1.60
2015,11,17,14,12,1.60
2015,11,17,14,13,4.80
2015,11,17,14,14,3.20
2015,11,17,14,15,3.20
2015,11,17,14,16,4.80
2015,11,17,14,17,3.20
2015,11,17,14,18,3.20
2015,11,17,14,19,4.80
2015,11,17,14,20,17.70
2015,11,17,14,21,14.50
2015,11,17,14,22,6.40
2015,11,17,14,23,6.40
2015,11,17,14,24,17.70
2015,11,17,14,25,22.50
2015,11,17,14,26,22.50
2015,11,17,14,27,20.90
2015,11,17,14,28,17.70
2015,11,17,14,29,14.50
2015,11,17,14,30,16.10
2015,11,17,14,31,17.70
2015,11,17,14,32,24.20
2015,11,17,14,33,11.30
2015,11,17,14,34,14.50
2015,11,17,14,35,24.20
2015,11,17,14,36,9.60
2015,11,17,14,37,6.40
2015,11,17,14,38,12.90
2015,11,17,14,39,16.10
2015,11,17,14,40,11.30
2015,11,17,14,41,24.20
2015,11,17,14,42,14.50
2015,11,17,14,43,6.40
2015,11,17,14,44,9.60
2015,11,17,14,45,6.40
2015,11,17,14,46,12.90
2015,11,17,14,47,16.10
2015,11,17,14,48,9.60
2015,11,17,14,49,11.30
2015,11,17,14,50,12.90
2015,11,17,14,51,16.10
2015,11,17,14,52,11.30
2015,11,17,14,53,9.60
2015,11,17,14,54,6.40
2015,11,17,14,55,9.60
2015,11,17,14,56,12.90
2015,11,17,14,57,12.90
2015,11,17,14,58,11.30
2015,11,17,14,59,9.60
2015,11,17,15,00,4.80
2015,11,17,15,01,11.30
2015,11,17,15,02,6.40
2015,11,17,15,03,6.40
2015,11,17,15,04,9.60
2015,11,17,15,05,9.60
2015,11,17,15,06,11.30
2015,11,17,15,07,9.60
2015,11,17,15,08,6.40
2015,11,17,15,09,4.80
2015,11,17,15,10,6.40
2015,11,17,15,11,4.80
2015,11,17,15,12,9.60
2015,11,17,15,13,6.40
2015,11,17,15,14,11.30
2015,11,17,15,15,11.30
2015,11,17,15,16,16.10
2015,11,17,15,17,12.90
2015,11,17,15,18,19.30
2015,11,17,15,19,17.70
2015,11,17,15,20,8.10
2015,11,17,15,21,24.20
2015,11,17,15,22,19.30
2015,11,17,15,23,11.30
2015,11,17,15,24,6.40
2015,11,17,15,25,9.60
2015,11,17,15,26,6.40
2015,11,17,15,27,12.90
2015,11,17,15,28,9.60
2015,11,17,15,29,9.60
2015,11,17,15,30,6.40
2015,11,17,15,31,9.60
2015,11,17,15,32,12.90
2015,11,17,15,33,6.40
2015,11,17,15,34,4.80
2015,11,17,15,35,6.40
2015,11,17,15,36,6.40
2015,11,17,15,37,4.80
2015,11,17,15,38,4.80
2015,11,17,15,39,9.60
2015,11,17,15,40,4.80
2015,11,17,15,41,4.80
2015,11,17,15,42,4.80
2015,11,17,15,43,4.80
2015,11,17,15,44,6.40
2015,11,17,15,45,4.80
2015,11,17,15,46,6.40
2015,11,17,15,47,6.40
2015,11,17,15,48,9.60
2015,11,17,15,49,4.80
2015,11,17,15,50,4.80
2015,11,17,15,51,6.40
2015,11,17,15,52,3.20
2015,11,17,15,53,3.20
2015,11,17,15,54,1.60
2015,11,17,15,55,1.60
2015,11,17,15,56,3.20
2015,11,17,15,57,1.60
2015,11,17,15,58,1.60
2015,11,17,15,59,1.60
2015,11,17,16,04,1.60
2015,11,17,16,05,1.60
2015,11,17,16,06,1.60
2015,11,17,16,07,1.60
2015,11,17,16,08,3.20
2015,11,17,16,09,3.20
2015,11,17,16,10,4.80
2015,11,17,16,11,3.20
2015,11,17,16,12,4.80
2015,11,17,16,13,3.20
2015,11,17,16,14,1.60
2015,11,17,16,22,3.20
2015,11,17,16,23,3.20
2015,11,17,16,24,4.80
2015,11,17,16,25,4.80
2015,11,17,16,26,6.40
2015,11,17,16,27,8.10
2015,11,17,16,28,6.40
2015,11,17,16,29,4.80
2015,11,17,16,30,3.20
2015,11,17,16,31,3.20
2015,11,17,16,32,3.20
2015,11,17,16,33,4.80
2015,11,17,16,34,3.20
2015,11,17,16,35,4.80
2015,11,17,16,36,1.60
2015,11,17,16,37,1.60
2015,11,17,16,38,1.60
2015,11,17,16,39,1.60
2015,11,17,16,40,3.20
2015,11,17,16,41,1.60
2015,11,17,16,43,1.60
2015,11,17,16,44,3.20
2015,11,17,16,45,1.60
2015,11,17,16,46,6.40
2015,11,17,16,47,3.20
2015,11,17,16,48,3.20
2015,11,17,16,49,4.80
2015,11,17,16,50,3.20
2015,11,17,16,51,3.20
2015,11,17,16,52,3.20
2015,11,17,16,53,3.20
2015,11,17,16,54,3.20
2015,11,17,16,55,3.20
2015,11,17,16,56,3.20
2015,11,17,16,57,3.20
2015,11,17,16,58,3.20
2015,11,17,16,59,4.80
2015,11,17,17,00,4.80
2015,11,17,17,01,4.80
2015,11,17,17,02,4.80
2015,11,17,17,03,4.80
2015,11,17,17,04,6.40
2015,11,17,17,05,4.80
2015,11,17,17,06,4.80
2015,11,17,17,07,3.20
2015,11,17,17,08,3.20
2015,11,17,17,09,4.80
2015,11,17,17,10,3.20
2015,11,17,17,11,3.20
2015,11,17,17,12,3.20
2015,11,17,17,13,3.20
2015,11,17,17,14,4.80
2015,11,17,17,15,3.20
2015,11,17,17,16,4.80
2015,11,17,17,17,6.40
2015,11,17,17,18,6.40
2015,11,17,17,19,4.80
2015,11,17,17,20,3.20
2015,11,17,17,21,3.20
2015,11,17,17,22,3.20
2015,11,17,17,23,3.20
2015,11,17,17,24,1.60
2015,11,17,17,25,1.60
2015,11,17,17,26,4.80
2015,11,17,17,27,4.80
2015,11,17,17,28,3.20
2015,11,17,17,29,3.20
2015,11,17,17,30,3.20
2015,11,17,17,31,1.60
2015,11,17,17,32,1.60
2015,11,17,17,34,1.60
2015,11,17,17,35,1.60
2015,11,17,17,36,3.20
2015,11,17,17,37,3.20
2015,11,17,17,38,3.20
2015,11,17,17,39,3.20
2015,11,17,17,40,3.20
2015,11,17,17,41,3.20
2015,11,17,17,42,3.20
2015,11,17,17,43,1.60
2015,11,17,17,44,4.80
2015,11,17,17,45,3.20
2015,11,17,17,46,3.20
2015,11,17,17,47,3.20
2015,11,17,17,48,3.20
2015,11,17,17,49,3.20
2015,11,17,17,50,3.20
2015,11,17,17,51,3.20
2015,11,17,17,52,3.20
2015,11,17,17,53,3.20
2015,11,17,17,54,1.60
2015,11,17,17,55,1.60
2015,11,17,17,56,3.20
2015,11,17,17,57,3.20
2015,11,17,17,58,3.20
2015,11,17,17,59,3.20
2015,11,17,18,00,3.20
2015,11,17,18,01,4.80
2015,11,17,18,02,3.20
2015,11,17,18,03,3.20
2015,11,17,18,04,3.20
2015,11,17,18,05,3.20
2015,11,17,18,06,1.60
2015,11,17,18,09,1.60
2015,11,17,18,10,1.60
2015,11,17,18,11,1.60
2015,11,17,18,12,3.20
2015,11,17,18,13,1.60
2015,11,17,18,14,3.20
2015,11,17,18,15,3.20
2015,11,17,18,16,3.20
2015,11,17,18,17,1.60
2015,11,17,18,18,1.60
2015,11,17,18,19,1.60
2015,11,17,18,20,1.60
2015,11,17,18,21,1.60
2015,11,17,18,22,3.20
2015,11,17,18,23,3.20
2015,11,17,18,24,3.20
2015,11,17,18,25,1.60
2015,11,17,18,26,1.60
2015,11,17,18,27,1.60
2015,11,17,18,28,1.60
2015,11,17,18,41,3.20
2015,11,17,18,42,3.20
2015,11,17,18,43,3.20
2015,11,17,18,44,4.80
2015,11,17,18,45,4.80
2015,11,17,18,46,4.80
2015,11,17,18,47,4.80
2015,11,17,18,48,4.80
2015,11,17,18,49,4.80
2015,11,17,18,50,6.40
2015,11,17,18,51,6.40
2015,11,17,18,52,8.10
2015,11,17,18,53,6.40
2015,11,17,18,54,4.80
2015,11,17,18,55,3.20
2015,11,17,18,56,3.20
2015,11,17,18,57,1.60
2015,11,17,18,58,1.60
2015,11,17,18,59,1.60
2015,11,17,19,00,3.20
2015,11,17,19,01,6.40
2015,11,17,19,02,6.40
2015,11,17,19,03,4.80
2015,11,17,19,04,1.60
2015,11,17,19,05,4.80
2015,11,17,19,06,3.20
2015,11,17,19,07,4.80
2015,11,17,19,08,4.80
2015,11,17,19,09,3.20
2015,11,17,19,10,4.80
2015,11,17,19,11,4.80
2015,11,17,19,12,3.20
2015,11,17,19,13,1.60
2015,11,17,19,14,1.60
2015,11,17,19,15,3.20
2015,11,17,19,16,4.80
2015,11,17,19,17,3.20
2015,11,17,19,18,3.20
2015,11,17,19,19,1.60
2015,11,17,19,20,3.20
2015,11,17,19,21,1.60
2015,11,17,19,22,1.60
2015,11,17,19,23,1.60
2015,11,17,19,24,3.20
2015,11,17,19,25,3.20
2015,11,17,19,27,1.60
2015,11,17,19,30,1.60
2015,11,17,19,31,1.60
2015,11,17,19,32,3.20
2015,11,17,19,33,1.60
2015,11,17,19,34,3.20
2015,11,17,19,35,1.60
2015,11,17,19,36,4.80
2015,11,17,19,37,4.80
2015,11,17,19,38,1.60
2015,11,17,19,39,3.20
2015,11,17,19,40,3.20
2015,11,17,19,41,1.60
2015,11,17,19,42,1.60
2015,11,17,19,43,3.20
2015,11,17,19,49,3.20
2015,11,17,19,50,3.20
2015,11,17,19,52,1.60
2015,11,17,19,53,1.60
2015,11,17,19,54,1.60
2015,11,17,19,55,1.60
2015,11,17,19,56,3.20
2015,11,17,19,57,4.80
2015,11,17,20,09,1.60
2015,11,17,20,10,1.60
2015,11,17,20,32,1.60
2015,11,17,20,33,1.60
2015,11,17,20,40,3.20
2015,11,17,20,41,3.20
2015,11,17,20,42,3.20
2015,11,17,20,43,3.20
2015,11,17,20,44,1.60
2015,11,17,20,45,3.20
2015,11,17,20,46,3.20
2015,11,17,20,47,3.20
2015,11,17,20,48,4.80
2015,11,17,20,49,3.20
2015,11,17,20,50,3.20
2015,11,17,20,51,3.20
2015,11,17,20,52,1.60
2015,11,17,20,53,3.20
2015,11,17,20,54,3.20
2015,11,17,20,55,1.60
2015,11,17,20,56,1.60
2015,11,17,20,57,1.60
2015,11,17,20,58,1.60
2015,11,17,20,59,1.60
2015,11,17,21,00,1.60
2015,11,17,21,01,1.60
2015,11,17,21,02,1.60
2015,11,17,21,03,1.60
2015,11,17,21,04,3.20
2015,11,17,21,05,1.60
2015,11,17,21,06,3.20
2015,11,17,21,07,3.20
2015,11,17,21,08,3.20
2015,11,17,21,09,3.20
2015,11,17,21,10,3.20
2015,11,17,21,11,1.60
2015,11,17,21,12,4.80
2015,11,17,21,13,1.60
2015,11,17,21,14,1.60
2015,11,17,21,15,4.80
2015,11,17,21,16,6.40
2015,11,17,21,17,9.60
2015,11,17,21,18,9.60
2015,11,17,21,19,8.10
2015,11,17,21,20,6.40
2015,11,17,21,21,11.30
2015,11,17,21,22,6.40
2015,11,17,21,23,9.60
2015,11,17,21,24,9.60
2015,11,17,21,25,8.10
2015,11,17,21,26,4.80
2015,11,17,21,27,6.40
2015,11,17,21,28,11.30
2015,11,17,21,29,6.40
2015,11,17,21,30,6.40
2015,11,17,21,31,4.80
2015,11,17,21,32,6.40
2015,11,17,21,33,6.40
2015,11,17,21,34,4.80
2015,11,17,21,35,1.60
2015,11,17,21,36,3.20
2015,11,17,21,37,4.80
2015,11,17,21,38,6.40
2015,11,17,21,39,4.80
2015,11,17,21,40,11.30
2015,11,17,21,41,12.90
2015,11,17,21,42,6.40
2015,11,17,21,43,6.40
2015,11,17,21,44,6.40
2015,11,17,21,45,9.60
2015,11,17,21,46,9.60
2015,11,17,21,47,9.60
2015,11,17,21,48,12.90
2015,11,17,21,49,6.40
2015,11,17,21,50,24.20
2015,11,17,21,51,25.70
2015,11,17,21,52,12.90
2015,11,17,21,53,9.60
2015,11,17,21,54,6.40
2015,11,17,21,55,6.40
2015,11,17,21,56,4.80
2015,11,17,21,57,6.40
2015,11,17,21,58,4.80
2015,11,17,21,59,4.80
2015,11,17,22,00,4.80
2015,11,17,22,01,6.40
2015,11,17,22,02,4.80
2015,11,17,22,03,4.80
2015,11,17,22,04,4.80
2015,11,17,22,05,4.80
2015,11,17,22,06,8.10
2015,11,17,22,07,9.60
2015,11,17,22,08,6.40
2015,11,17,22,09,4.80
2015,11,17,22,10,4.80
2015,11,17,22,11,4.80
2015,11,17,22,12,6.40
2015,11,17,22,13,4.80
2015,11,17,22,14,6.40
2015,11,17,22,15,6.40
2015,11,17,22,16,9.60
2015,11,17,22,17,9.60
2015,11,17,22,18,8.10
2015,11,17,22,19,4.80
2015,11,17,22,20,4.80
2015,11,17,22,21,9.60
2015,11,17,22,22,12.90
2015,11,17,22,23,9.60
2015,11,17,22,24,8.10
2015,11,17,22,25,6.40
2015,11,17,22,26,3.20
2015,11,17,22,27,3.20
2015,11,17,22,28,4.80
2015,11,17,22,29,6.40
2015,11,17,22,30,6.40
2015,11,17,22,31,6.40
2015,11,17,22,32,4.80
2015,11,17,22,33,4.80
2015,11,17,22,34,6.40
2015,11,17,22,35,4.80
2015,11,17,22,36,6.40
2015,11,17,22,37,4.80
2015,11,17,22,38,6.40
2015,11,17,22,39,4.80
2015,11,17,22,40,4.80
2015,11,17,22,41,6.40
2015,11,17,22,42,6.40
2015,11,17,22,43,6.40
2015,11,17,22,44,9.60
2015,11,17,22,45,9.60
2015,11,17,22,46,9.60
2015,11,17,22,47,6.40
2015,11,17,22,48,6.40
2015,11,17,22,49,6.40
2015,11,17,22,50,4.80
2015,11,17,22,51,4.80
2015,11,17,22,52,6.40
2015,11,17,22,53,4.80
2015,11,17,22,54,6.40
2015,11,17,22,55,6.40
2015,11,17,22,56,6.40
2015,11,17,22,57,9.60
2015,11,17,22,58,6.40
2015,11,17,22,59,6.40
2015,11,17,23,00,9.60
2015,11,17,23,01,6.40
2015,11,17,23,02,6.40
2015,11,17,23,03,6.40
2015,11,17,23,04,9.60
2015,11,17,23,05,6.40
2015,11,17,23,06,9.60
2015,11,17,23,07,9.60
2015,11,17,23,08,6.40
2015,11,17,23,09,4.80
2015,11,17,23,10,6.40
2015,11,17,23,11,6.40
2015,11,17,23,12,6.40
2015,11,17,23,13,11.30
2015,11,17,23,14,9.60
2015,11,17,23,15,9.60
2015,11,17,23,16,11.30
2015,11,17,23,17,12.90
2015,11,17,23,18,11.30
2015,11,17,23,19,9.60
2015,11,17,23,20,8.10
2015,11,17,23,21,9.60
2015,11,17,23,22,9.60
2015,11,17,23,23,11.30
2015,11,17,23,24,12.90
2015,11,17,23,25,11.30
2015,11,17,23,26,9.60
2015,11,17,23,27,9.60
2015,11,17,23,28,8.10
2015,11,17,23,29,12.90
2015,11,17,23,30,12.90
2015,11,17,23,31,16.10
2015,11,17,23,32,11.30
2015,11,17,23,33,9.60
2015,11,17,23,34,14.50
2015,11,17,23,35,16.10
2015,11,17,23,36,14.50
2015,11,17,23,37,12.90
2015,11,17,23,38,11.30
2015,11,17,23,39,12.90
2015,11,17,23,40,12.90
2015,11,17,23,41,9.60